This demonstration page uses our WeatherBlox Daily Observations layout. Learn more.

Left ArrowRight Arrow

34.74481, -87.66753

Hourly Observations for March 30, 2021

Temp ( °F °C ) Dew Point ( °F °C ) Humidity (%) Winds ( mph kmh ) Pressure ( in mb ) Visibility ( mi km ) Precip ( " mm )
2:53 am 02:53 Clear 50 10 34 1.1 54 54 ESE 3 6 30.08 1019 10 16 0.00 0.00
3:53 am 03:53 Clear 45 7.2 34 1.1 66 66 ESE 5 7 30.10 1019 10 16 0.00 0.00
4:53 am 04:53 Clear 47 8.3 34 1.1 61 61 ESE 5 7 30.10 1019 10 16 0.00 0.00
5:53 am 05:53 Clear 46 7.8 35 1.7 66 66 SE 5 7 30.10 1019 10 16 0.00 0.00
6:53 am 06:53 Sunny 46 7.8 34 1.1 63 63 E 5 7 30.11 1020 10 16 0.00 0.00
7:53 am 07:53 Sunny 52 11.1 38 3.3 59 59 ESE 3 6 30.13 1020 10 16 0.00 0.00
8:16 am 08:16 Hazy 54 12.2 39 3.9 57 57 SE 6 9 30.13 1020 1 2 0.00 0.00
8:19 am 08:19 Hazy 55 12.8 39 3.9 55 55 SE 8 13 30.13 1020 5 8 0.00 0.00
8:53 am 08:53 Sunny 58 14.4 39 3.9 50 50 SE 8 13 30.13 1020 10 16 0.00 0.00
9:53 am 09:53 Sunny 65 18.3 43 6.1 45 45 SE 9 15 30.13 1020 10 16 0.00 0.00
10:53 am 10:53 Sunny 71 21.7 46 7.8 41 41 S 8 13 30.13 1020 10 16 0.00 0.00
11:53 am 11:53 Sunny 74 23.3 44 6.7 34 34 S 10 17 30.11 1020 10 16 0.00 0.00
12:53 pm 12:53 Sunny 76 24.4 44 6.7 32 32 S 14 22 30.09 1019 10 16 0.00 0.00
1:53 pm 13:53 Sunny 77 25 45 7.2 32 32 S 14 22 30.06 1018 10 16 0.00 0.00
2:53 pm 14:53 Partly Cloudy 80 26.7 48 8.9 33 33 S 10 17 30.02 1017 10 16 0.00 0.00
3:53 pm 15:53 Cloudy 78 25.6 52 11.1 40 40 S 8 13 30.00 1016 10 16 0.00 0.00
4:53 pm 16:53 Cloudy 77 25 54 12.2 45 45 S 13 20 30.00 1016 10 16 0.00 0.00
5:53 pm 17:53 Cloudy 76 24.4 56 13.3 50 50 SSW 10 17 30.00 1016 10 16 0.00 0.00
6:53 pm 18:53 Mostly Cloudy 72 22.2 57 13.9 59 59 SSE 6 9 29.99 1016 10 16 0.00 0.00
7:53 pm 19:53 Mostly Clear 70 21.1 57 13.9 64 64 SSE 7 11 29.98 1015 10 16 0.00 0.00
8:53 pm 20:53 Cloudy 72 22.2 56 13.3 57 57 SSE 12 19 29.98 1015 10 16 0.00 0.00
9:53 pm 21:53 Mostly Cloudy 69 20.6 60 15.6 73 73 SSE 7 11 29.98 1015 10 16 0.00 0.00
10:53 pm 22:53 Cloudy 71 21.7 61 16.1 71 71 S 14 22 29.97 1015 10 16 0.00 0.00
11:53 pm 23:53 Mostly Cloudy 71 21.7 62 16.7 73 73 S 15 24 29.97 1015 10 16 0.00 0.00

Powered by AerisWeather